Location: Newark
(34.6283°N, 36.0776°E)
Time: 00:05:41
(UTC+00:00)

S-56A Canister/Altair - Pass Details

Date: 24 October 2019
Orbit: 634 x 2498 km, 38.9° (Epoch: 11 November)

Event Time Altitude Azimuth Distance (km) Brightness Sun altitude
Rises 04:07:34 0° 290° (WNW) 4,106 10.5 3.0°
Reaches altitude 10° 04:10:00 10° 288° (WNW) 3,349 10.2 3.4°
Maximum altitude 04:18:41 69° 207° (SSW) 1,853 9.6 5.1°
Drops below altitude 10° 04:31:39 10° 128° (SE) 4,831 13.4 7.7°
Sets 04:35:53 0° 126° (SE) 5,999 13.9 8.5°
